Tracking 17154 objects as of 2-August-2015
HD Live streaming from Space Station

BONUM 1

Track BONUM 1 now!
BONUM 1 is classified as:


NORAD ID: 25546
Int'l Code: 1998-068A
Perigee: 36,139.1 km
Apogee: 36,148.9 km
Inclination: 2.9 °
Period: 1,454.0 minutes
Semi major axis: 42514 km
RCS: 0.003 m2 (small)
Launch date: November 22, 1998
Source: Commonwealth of Independent States (former USSR) (CIS)

Television broadcasting; 8 Ku-band, Siberia or Europe, selected.
Your satellite tracking list
Your tracking list is empty





NASA's NSSDC Master Catalog

Two Line Element Set (TLE):
1 25546U 98068A   15211.11810111  .00000022  00000-0  10000-3 0  9995
2 25546 002.8845 070.7679 0001161 344.2899 015.7161 00.99035261 61165

Source of the keplerian elements: AFSPC

N2YO: 311